Wind_Speed
23 23 23 23 24 25 25 25 25 25 24 25 26 26 26 27 28 28 28 31 33 35 37 41 44 46 49 52 57 62 65 68 72 73 73 76 83 87 90 89 85 81 78 78 77
23 23 20 21 24 27 27 27 27 26 25 25 26 29 29 29 30 29 32 33 36 39 41 45 49 51 53 55 56 58 62 70 74 76 79 80 79 85 87 91 91 89 89 84 84
22 17 19 24 26 23 25 25 25 26 27 29 31 32 32 31 32 33 36 38 39 42 44 47 52 55 57 59 61 61 62 65 70 76 80 80 83 88 85 88 96 96 93 88 85
19 17 22 24 25 26 30 29 26 26 29 32 35 35 34 33 34 38 40 42 44 46 49 52 55 58 62 66 66 68 69 69 71 70 74 75 80 88 90 88 93 101 97 94 88
17 18 23 25 25 28 30 31 31 31 32 30 29 29 31 34 39 45 49 52 54 56 59 61 63 63 64 68 71 73 73 74 75 74 76 70 72 82 84 95 100 98 103 99 96
18 21 24 25 26 30 32 33 34 34 33 32 32 34 37 42 46 50 54 58 60 62 66 67 68 70 72 72 71 73 77 82 83 80 79 73 80 81 85 96 105 104 100 106 103
20 24 24 27 30 32 34 36 36 34 32 33 34 36 40 44 48 53 59 62 66 69 71 73 74 74 74 76 74 76 78 77 79 80 80 80 82 86 91 95 105 108 104 104 109
23 25 27 29 31 34 36 38 38 36 34 36 38 42 49 51 54 59 65 68 72 74 76 78 81 80 79 79 80 78 79 78 79 77 75 76 82 82 90 99 105 110 108 106 106
26 27 30 33 35 37 38 40 40 39 39 42 46 51 55 58 65 69 71 73 76 78 83 84 86 86 86 87 86 85 85 82 79 74 71 72 80 81 86 99 107 112 109 109 109
28 32 33 36 39 40 42 44 42 41 44 48 51 56 61 67 67 70 72 76 73 72 72 74 73 76 73 74 75 75 74 74 74 71 66 69 77 79 84 97 109 115 114 111 111
33 34 37 40 44 44 47 48 48 45 48 53 60 65 66 59 63 60 68 71 75 71 69 71 71 66 63 61 63 66 68 68 71 72 64 69 73 80 84 96 110 120 119 115 112
35 37 41 44 48 49 49 52 51 51 52 58 65 65 66 61 61 62 63 68 69 64 60 63 60 58 56 55 52 54 55 62 66 69 66 74 72 79 88 98 109 121 124 120 114
38 42 46 49 52 53 54 56 54 52 57 64 61 60 62 61 62 65 62 65 61 59 61 60 55 54 50 49 46 50 50 55 60 68 68 67 66 72 90 98 109 119 127 124 119
43 47 50 53 56 57 60 59 55 55 64 61 57 59 60 60 68 68 71 67 60 60 58 54 50 48 45 44 44 45 49 52 57 58 61 58 59 72 87 97 108 119 127 129 123
47 51 53 57 59 61 62 61 59 63 66 67 60 63 62 62 61 70 72 67 61 64 61 56 46 48 47 44 45 45 47 47 49 51 48 54 55 68 76 94 105 114 121 130 124
52 55 59 62 63 63 62 63 67 69 68 70 70 73 77 77 76 80 78 65 59 62 63 53 43 45 49 49 47 48 43 39 43 43 42 47 48 59 65 86 97 105 113 123 123
56 59 62 64 64 62 62 64 72 74 70 75 82 83 84 82 88 79 75 63 61 56 56 63 43 43 42 51 48 46 47 39 38 38 34 38 38 45 62 69 88 97 104 112 121
60 61 62 64 63 63 66 70 74 76 77 79 81 82 83 80 86 74 67 58 58 55 50 51 50 44 47 48 50 49 47 38 34 32 30 31 35 47 52 59 78 91 97 106 120
62 63 62 62 63 65 70 72 77 80 82 82 85 84 86 83 80 70 63 58 57 53 47 46 51 41 43 48 45 46 47 37 30 25 22 21 32 40 47 63 73 85 89 103 113
64 64 61 63 66 69 72 74 79 82 84 88 85 89 83 78 75 69 58 56 54 52 46 46 47 42 44 45 43 43 44 36 28 18 14 20 26 31 46 58 66 75 84 98 107
64 62 63 65 69 72 74 77 83 84 84 87 87 88 85 75 73 62 55 51 50 50 49 42 47 45 40 43 43 42 41 33 25 14 11 19 25 30 36 47 57 66 77 88 101
64 65 66 69 71 75 76 79 81 84 87 88 89 88 79 72 66 61 56 49 49 48 50 47 44 46 39 41 42 41 41 33 26 15 14 17 22 26 31 41 52 60 69 82 95
62 66 69 71 74 77 80 82 83 83 89 88 85 81 76 71 60 56 54 48 50 50 50 50 44 40 43 42 40 41 39 36 29 18 16 15 16 22 27 36 41 52 63 76 90
63 68 72 75 76 75 80 85 87 85 88 89 76 77 70 68 63 54 54 52 49 51 53 53 51 49 36 37 37 38 38 36 31 20 10 12 16 19 21 28 38 45 57 67 80
67 70 75 81 83 84 84 83 85 87 89 85 72 73 63 59 56 55 54 54 51 51 52 51 53 52 45 38 39 34 34 35 28 31 21 12 11 18 23 26 37 46 54 61 73
77 76 78 83 87 90 90 82 85 89 88 87 68 70 63 57 53 48 49 49 49 52 50 49 50 48 51 41 38 34 34 32 25 28 30 22 13 14 22 26 34 42 46 57 69
80 82 80 85 89 92 92 91 90 89 91 86 70 63 59 58 57 52 47 49 50 49 49 46 47 47 51 43 39 35 32 31 27 28 32 27 19 16 18 27 31 41 46 57 69
Wind_Direction
310 311 311 314 317 316 314 310 306 297 293 289 285 282 284 279 267 263 263 264 266 264 261 259 256 254 252 250 246 242 242 241 239 238 237 238 234 234 234 233 233 228 219 230 230
312 317 324 329 324 320 315 309 307 301 296 291 292 288 291 280 268 267 269 270 270 269 266 263 260 259 258 255 251 249 246 242 241 240 239 241 239 239 234 233 232 231 229 226 232
314 322 331 331 334 339 342 334 315 301 297 296 294 296 290 281 269 270 274 276 275 272 270 267 265 264 262 260 258 255 252 247 244 241 241 242 241 242 238 235 233 230 229 229 225
316 325 331 331 333 328 329 331 334 325 317 305 295 288 285 278 272 275 278 275 272 271 271 269 268 266 266 264 262 260 258 256 253 247 241 239 240 243 241 239 237 232 231 230 216
314 325 326 323 324 329 329 330 327 321 319 317 311 302 292 286 282 281 279 275 273 271 271 270 269 267 267 267 267 264 262 261 259 255 253 250 243 240 242 240 238 235 231 228 219
314 322 321 320 323 328 331 331 329 323 315 309 302 296 290 286 283 283 282 282 282 281 278 275 274 271 269 268 268 266 264 264 261 260 260 257 254 252 245 239 240 236 233 230 224
312 318 320 320 324 328 327 326 324 319 312 306 305 305 302 296 292 288 285 282 282 280 280 278 277 274 274 273 270 269 267 263 264 262 257 255 252 249 247 240 235 236 232 233 230
311 315 315 319 323 327 328 325 323 318 312 307 306 304 301 295 292 292 287 285 284 284 283 281 280 280 279 277 278 274 271 268 264 258 256 249 250 245 243 239 232 231 230 229 231
310 312 314 322 324 323 322 323 319 314 310 310 308 306 303 303 300 293 290 289 287 287 285 283 281 278 274 274 274 273 274 272 269 266 258 249 250 246 241 237 232 227 227 226 227
309 311 315 319 320 320 321 321 318 314 312 314 313 316 316 317 314 311 307 302 300 296 293 290 290 284 281 277 275 274 273 271 269 265 260 253 250 248 242 235 230 226 222 223 223
310 311 315 316 319 320 320 318 316 315 316 319 324 325 323 322 323 318 311 309 307 305 302 299 299 293 287 281 277 275 272 269 267 264 260 255 251 248 241 233 228 223 221 220 219
309 310 313 316 318 319 320 320 320 321 323 323 330 330 327 325 327 325 318 314 315 315 315 314 307 300 293 288 281 272 267 267 266 265 260 257 250 241 237 231 227 222 219 217 217
307 311 314 315 318 318 319 320 323 324 326 330 331 327 330 327 330 336 333 334 328 325 322 319 310 302 297 293 290 283 277 271 265 266 262 252 245 237 234 230 226 223 218 215 214
309 312 313 315 317 319 319 322 325 327 331 333 329 329 332 328 335 340 336 334 329 327 325 326 318 307 302 299 294 289 285 279 274 266 261 251 239 235 228 228 227 223 218 215 212
310 311 312 315 317 318 319 322 326 330 334 334 331 332 333 332 336 337 334 336 333 329 328 330 324 314 309 305 302 300 295 285 276 271 261 250 235 240 228 228 228 224 219 215 210
309 311 314 316 316 318 321 323 329 334 336 337 336 337 339 337 338 340 340 338 335 331 328 333 326 316 312 311 311 307 301 288 280 276 266 249 238 234 231 226 228 225 220 219 212
310 312 314 316 317 318 320 324 329 333 337 338 337 338 338 339 340 339 339 337 337 334 330 330 333 319 317 314 317 318 312 303 293 282 268 255 246 234 235 224 225 224 219 217 215
309 312 313 315 317 317 320 325 330 333 334 334 337 337 337 338 342 341 339 335 335 334 334 331 331 328 325 324 322 322 317 313 303 285 273 260 246 233 231 224 221 224 218 214 214
310 311 312 312 314 317 319 322 328 329 331 331 334 335 337 337 339 341 339 338 336 333 337 335 328 332 328 326 326 324 320 321 315 298 294 266 249 237 226 223 221 220 217 213 211
309 311 311 314 316 316 317 321 326 327 329 331 331 334 337 336 338 340 340 337 337 336 340 339 332 337 328 329 331 327 321 326 321 315 285 260 244 232 227 224 221 219 215 214 209
308 310 311 312 313 316 318 321 324 326 328 328 330 332 334 338 338 340 342 338 339 339 338 339 337 333 329 332 331 329 325 329 327 310 271 256 243 231 229 227 220 218 216 213 209
307 308 310 311 312 315 318 321 324 325 328 328 329 330 332 339 336 341 341 339 340 340 341 337 343 333 333 335 332 330 330 335 329 312 288 261 246 239 223 225 219 214 213 212 208
303 305 307 309 312 315 317 319 322 326 327 330 329 331 331 335 338 339 340 342 344 342 342 339 343 339 336 334 330 332 331 327 330 325 312 295 259 241 232 223 221 219 211 210 207
299 302 304 308 311 314 317 320 322 327 330 331 328 329 331 334 335 340 340 343 346 345 343 343 340 339 345 330 326 328 325 322 326 334 329 301 269 230 225 219 219 213 213 209 207
296 301 304 307 310 312 316 320 322 325 328 331 327 327 329 332 333 339 337 341 341 343 342 344 341 340 342 334 325 329 320 320 330 337 341 315 259 241 213 208 214 211 205 204 204
298 301 306 308 310 312 316 319 320 324 325 328 327 324 325 327 330 332 335 336 337 340 341 342 340 337 334 332 328 327 325 323 331 329 338 339 305 263 223 203 210 209 202 198 198
300 301 304 307 308 310 313 315 318 320 321 322 325 325 320 323 324 326 328 330 332 336 336 339 342 338 334 330 327 327 322 319 324 326 335 326 327 276 235 209 207 202 198 194 193
Height
10846 10844 10841 10838 10835 10832 10830 10827 10825 10823 10822 10821 10819 10818 10817 10817 10815 10815 10814 10813 10813 10813 10812 10811 10810 10810 10810 10810 10812 10815 10817 10817 10817 10819 10823 10820 10825 10831 10840 10856 10866 10871 10880 10889 10896
10842 10840 10838 10835 10832 10828 10825 10822 10820 10818 10816 10815 10813 10812 10811 10810 10809 10808 10807 10806 10805 10803 10802 10800 10798 10797 10797 10797 10799 10800 10800 10801 10802 10803 10806 10808 10817 10812 10826 10838 10849 10857 10863 10871 10880
10839 10837 10835 10831 10828 10824 10821 10817 10815 10814 10812 10810 10808 10806 10804 10803 10802 10800 10799 10798 10795 10793 10791 10789 10785 10783 10782 10782 10782 10783 10783 10784 10784 10786 10788 10794 10803 10797 10813 10821 10822 10837 10846 10855 10865
10836 10834 10831 10828 10825 10821 10817 10814 10812 10809 10807 10804 10801 10799 10797 10797 10796 10794 10792 10788 10785 10781 10778 10775 10771 10768 10767 10764 10765 10765 10764 10764 10762 10765 10770 10778 10782 10785 10795 10805 10804 10815 10830 10837 10849
10832 10831 10828 10825 10821 10817 10814 10810 10808 10804 10801 10798 10796 10795 10794 10792 10789 10784 10778 10773 10770 10767 10763 10759 10755 10753 10749 10746 10746 10744 10744 10744 10742 10745 10750 10759 10764 10763 10776 10780 10777 10789 10810 10823 10834
10829 10827 10824 10821 10818 10815 10811 10807 10803 10800 10796 10793 10790 10788 10785 10781 10776 10771 10764 10757 10754 10750 10744 10739 10736 10733 10729 10727 10726 10723 10722 10719 10720 10723 10726 10735 10738 10740 10744 10753 10757 10768 10792 10806 10818
10825 10823 10819 10817 10814 10811 10807 10803 10798 10794 10790 10786 10782 10779 10775 10770 10764 10758 10750 10741 10734 10728 10723 10717 10712 10710 10707 10703 10702 10699 10696 10696 10695 10698 10706 10711 10714 10715 10716 10722 10730 10743 10770 10786 10802
10821 10818 10815 10813 10810 10806 10802 10797 10792 10788 10784 10780 10776 10770 10763 10756 10748 10740 10732 10724 10715 10709 10704 10696 10688 10684 10680 10676 10671 10669 10668 10666 10666 10671 10679 10685 10680 10685 10683 10686 10698 10714 10741 10764 10775
10817 10814 10811 10808 10805 10801 10797 10793 10787 10781 10777 10772 10766 10758 10750 10742 10729 10719 10711 10702 10696 10688 10676 10667 10660 10656 10651 10646 10641 10637 10635 10634 10634 10637 10646 10654 10647 10652 10656 10656 10668 10686 10712 10736 10751
10811 10808 10806 10802 10798 10794 10790 10785 10781 10774 10767 10762 10754 10746 10733 10719 10709 10697 10682 10672 10668 10660 10651 10640 10632 10622 10618 10614 10610 10607 10604 10601 10603 10603 10614 10620 10618 10624 10624 10626 10637 10653 10682 10704 10726
10806 10802 10799 10795 10791 10787 10782 10776 10770 10766 10759 10751 10742 10730 10716 10705 10693 10680 10663 10650 10640 10630 10619 10606 10603 10596 10591 10587 10584 10580 10576 10574 10571 10569 10583 10586 10593 10589 10590 10595 10600 10619 10649 10675 10701
10800 10796 10792 10788 10783 10778 10773 10767 10761 10754 10748 10739 10728 10715 10703 10692 10679 10664 10649 10632 10619 10606 10598 10586 10577 10569 10563 10559 10560 10556 10554 10549 10547 10545 10557 10549 10563 10558 10555 10562 10569 10589 10616 10647 10675
10793 10789 10785 10779 10775 10769 10764 10758 10753 10746 10738 10727 10716 10703 10690 10676 10663 10648 10633 10618 10603 10592 10582 10574 10560 10549 10543 10537 10537 10530 10532 10529 10526 10519 10518 10519 10531 10532 10525 10536 10540 10557 10587 10618 10647
10786 10781 10776 10771 10766 10759 10753 10748 10742 10735 10725 10714 10703 10692 10678 10666 10649 10637 10623 10610 10595 10582 10569 10559 10547 10536 10528 10524 10520 10515 10511 10506 10499 10495 10489 10493 10504 10497 10500 10508 10512 10525 10558 10589 10621
10777 10772 10767 10761 10756 10750 10743 10736 10731 10723 10713 10701 10691 10678 10667 10654 10641 10623 10610 10596 10581 10564 10553 10543 10534 10521 10515 10511 10506 10499 10492 10485 10477 10471 10471 10467 10477 10471 10481 10487 10493 10508 10540 10566 10600
10770 10764 10758 10753 10747 10740 10734 10725 10718 10710 10699 10687 10676 10665 10650 10634 10622 10608 10593 10579 10571 10553 10536 10535 10523 10512 10504 10495 10492 10484 10476 10468 10459 10455 10453 10449 10458 10453 10465 10469 10478 10497 10526 10556 10588
10761 10754 10748 10741 10735 10728 10722 10715 10706 10696 10687 10677 10663 10651 10638 10624 10610 10595 10582 10567 10557 10549 10530 10510 10514 10502 10498 10485 10479 10472 10460 10454 10447 10441 10440 10437 10439 10443 10442 10459 10464 10481 10508 10538 10571
10750 10744 10736 10729 10722 10716 10709 10702 10694 10685 10676 10663 10654 10638 10628 10617 10602 10582 10571 10559 10547 10538 10526 10511 10499 10493 10482 10478 10467 10460 10450 10443 10436 10430 10428 10426 10427 10427 10437 10449 10452 10466 10490 10520 10542
10740 10733 10726 10719 10712 10704 10697 10690 10682 10673 10664 10655 10643 10633 10617 10603 10595 10580 10563 10551 10539 10529 10519 10509 10491 10488 10480 10470 10463 10452 10441 10434 10429 10424 10421 10420 10419 10423 10429 10430 10441 10453 10480 10499 10526
10725 10719 10714 10706 10700 10693 10684 10677 10671 10662 10651 10638 10631 10620 10609 10592 10583 10571 10558 10543 10534 10521 10512 10500 10488 10482 10472 10464 10456 10446 10437 10429 10422 10419 10414 10411 10409 10414 10417 10422 10434 10449 10468 10485 10515
10713 10708 10703 10697 10688 10681 10674 10666 10656 10648 10642 10627 10618 10605 10596 10586 10569 10559 10551 10538 10527 10516 10505 10498 10484 10474 10468 10458 10449 10441 10431 10425 10419 10414 10409 10404 10404 10408 10415 10421 10429 10442 10458 10478 10505
10699 10695 10690 10684 10677 10671 10664 10659 10647 10636 10626 10615 10605 10593 10581 10577 10558 10549 10539 10530 10521 10510 10500 10489 10481 10467 10461 10452 10443 10435 10426 10420 10416 10411 10406 10401 10402 10405 10412 10411 10420 10431 10449 10467 10489
10686 10680 10677 10674 10668 10659 10651 10644 10638 10628 10616 10605 10590 10582 10568 10563 10557 10543 10533 10522 10513 10503 10494 10484 10477 10468 10451 10443 10437 10431 10424 10420 10416 10409 10404 10401 10401 10398 10407 10411 10419 10431 10441 10456 10478
10681 10672 10662 10657 10656 10652 10642 10628 10619 10613 10603 10594 10583 10573 10563 10547 10538 10535 10523 10514 10506 10499 10487 10478 10467 10457 10453 10442 10435 10428 10423 10417 10410 10406 10403 10399 10397 10396 10400 10409 10413 10423 10437 10452 10471
10670 10665 10651 10641 10634 10634 10635 10625 10610 10601 10587 10584 10570 10557 10556 10547 10533 10524 10517 10509 10500 10494 10484 10476 10464 10450 10444 10437 10429 10426 10420 10414 10412 10405 10399 10397 10395 10395 10396 10402 10408 10413 10425 10446 10465
10654 10652 10646 10631 10622 10612 10610 10611 10602 10590 10584 10571 10565 10546 10542 10537 10530 10525 10516 10507 10499 10490 10482 10474 10465 10454 10438 10431 10426 10420 10415 10411 10410 10405 10400 10395 10395 10394 10396 10397 10405 10411 10425 10439 10456
10637 10634 10634 10619 10604 10595 10592 10591 10585 10581 10561 10558 10557 10546 10529 10525 10518 10513 10509 10500 10495 10487 10479 10471 10461 10453 10438 10428 10421 10417 10411 10408 10406 10402 10398 10395 10392 10392 10396 10396 10400 10408 10419 10432 10446